Tracking 20037 objects as of 21-Nov-2019
Live streaming from Space Station
objects crossing your sky now

COSMOS 249 DEB

Track COSMOS 249 DEB now!
10-day predictions


NORAD ID: 14410
Int'l Code: 1968-091CL
Perigee: 652.1 km
Apogee: 1,357.1 km
Inclination: 62.2 °
Period: 105.1 minutes
Semi major axis: 7375 km
RCS: 0.0157 m2 (small)
Launch date: October 20, 1968
Source: Commonwealth of Independent States (former USSR) (CIS)
Launch site: TYURATAM MISSILE AND SPACE COMPLEX (TTMTR)

Note: This is SATELLITE DEBRIS
aabbcc
Your satellite tracking list
Your tracking list is empty




NASA's NSSDC Master Catalog

Two Line Element Set (TLE):
1 14410U 68091CL  19324.19123899  .00001484  00000-0  79647-3 0  9998
2 14410  62.2208 275.8808 0477910  21.4997  88.7122 13.70595866771935
Source of the keplerian elements: AFSPC